Change the Weather History Date:

Saturday, June 15, 2013

  Actual Average Record
Temperature  
Mean Temperature 82 °F 80 °F  
Max Temperature 92 °F 89 °F 101 °F (1952)
Min Temperature 71 °F 71 °F 60 °F (1995)
Cooling Degree Days 17 15  
Month to date cooling degree days 228 208  
Year to date cooling degree days 592 653  
Since 1 June cooling degree days 228 208  
Growing Degree Days 31 (Base 50)    
Moisture  
Dew Point 68 °F    
Average Humidity 68    
Maximum Humidity 91    
Minimum Humidity 44    
Precipitation  
Precipitation 0.00 in 0.20 in 2.60 in (1940)
Month to date precipitation 2.21 2.82  
Year to date precipitation 30.66 29.66  
Sea Level Pressure  
Sea Level Pressure 29.99 in    
Wind  
Wind Speed 6 mph (ESE)    
Max Wind Speed 13 mph    
Max Gust Speed 21 mph    
Visibility 10 miles    
Events      
T = Trace of Precipitation, MM = Missing Value Source: NWS Daily Summary

Daily Weather History Graph

Daily Weather History Graph

Search for Another Location

Airport or City:

Trip Planner

Search our weather history database for the weather conditions in past years. The results will help you decide how hot, cold, wet, or windy it might be!

Date:

Astronomy

Jun. 15, 2013 Rise Set
Actual Time 5:49 AM CDT 7:57 PM CDT
Civil Twilight 5:22 AM CDT 8:25 PM CDT
Nautical Twilight 4:48 AM CDT 8:58 PM CDT
Astronomical Twilight 4:12 AM CDT 9:35 PM CDT
Moon 12:00 PM CDT (6/15) No Moon Set
Length of Visible Light 15h 02m
Length of Day
14h 07m
Waxing Crescent, 40% of the Moon is Illuminated
Jun 15
Waxing Crescent
Jun 16
First Quarter
Jun 23
Full
Jun 29
Last Quarter
Jul 8
New

Hourly Weather History & Observations

Time (CDT) Temp. Heat Index Dew Point Humidity Pressure Visibility Wind Dir Wind Speed Gust Speed Precip Events Conditions
12:56 AM 73.9 °F - 64.0 °F 71% 29.96 in 10.0 mi NNE 3.5 mph - N/A   Clear
1:56 AM 73.0 °F - 64.0 °F 73% 29.95 in 10.0 mi NNE 4.6 mph - N/A   Partly Cloudy
2:56 AM 72.0 °F - 64.0 °F 76% 29.95 in 10.0 mi NE 3.5 mph - N/A   Clear
3:56 AM 72.0 °F - 63.0 °F 73% 29.94 in 10.0 mi NE 4.6 mph - N/A   Clear
4:56 AM 71.1 °F - 63.0 °F 75% 29.96 in 10.0 mi NE 4.6 mph - N/A   Partly Cloudy
5:56 AM 71.1 °F - 63.0 °F 75% 29.98 in 10.0 mi NE 3.5 mph - N/A   Scattered Clouds
6:56 AM 73.0 °F - 63.0 °F 71% 29.99 in 10.0 mi NE 4.6 mph - N/A   Scattered Clouds
7:56 AM 78.1 °F - 64.0 °F 62% 30.00 in 10.0 mi East 5.8 mph - N/A   Partly Cloudy
8:56 AM 82.0 °F 84.1 °F 66.0 °F 58% 30.02 in 10.0 mi East 8.1 mph - N/A   Partly Cloudy
9:56 AM 86.0 °F 88.8 °F 66.9 °F 53% 30.02 in 10.0 mi ESE 6.9 mph - N/A   Partly Cloudy
10:56 AM 89.1 °F 92.9 °F 68.0 °F 50% 30.03 in 10.0 mi ESE 4.6 mph - N/A   Scattered Clouds
11:56 AM 88.0 °F 91.4 °F 68.0 °F 51% 30.02 in 10.0 mi Variable 5.8 mph - N/A   Mostly Cloudy
12:56 PM 90.0 °F 94.5 °F 69.1 °F 50% 30.01 in 10.0 mi SSE 8.1 mph 20.7 mph N/A   Mostly Cloudy
1:56 PM 91.0 °F 95.2 °F 68.0 °F 47% 30.00 in 10.0 mi Variable 5.8 mph - N/A   Partly Cloudy
2:56 PM 91.9 °F 94.5 °F 66.0 °F 42% 30.00 in 10.0 mi SSE 4.6 mph - N/A   Partly Cloudy
3:56 PM 89.1 °F 92.9 °F 68.0 °F 50% 29.99 in 10.0 mi SSE 10.4 mph - N/A   Clear
4:56 PM 91.0 °F 95.2 °F 68.0 °F 47% 29.97 in 10.0 mi Calm Calm - N/A   Partly Cloudy
5:56 PM 89.1 °F 94.1 °F 70.0 °F 53% 29.97 in 10.0 mi SSE 9.2 mph - N/A   Scattered Clouds
6:56 PM 87.1 °F 92.0 °F 70.0 °F 57% 29.97 in 10.0 mi SSE 6.9 mph - N/A   Partly Cloudy
7:56 PM 84.0 °F 89.6 °F 72.0 °F 67% 29.99 in 10.0 mi SSE 9.2 mph - N/A   Mostly Cloudy
8:56 PM 81.0 °F 86.7 °F 75.0 °F 82% 30.00 in 10.0 mi SE 8.1 mph - N/A   Scattered Clouds
9:56 PM 80.1 °F 85.1 °F 75.0 °F 85% 30.02 in 10.0 mi SE 4.6 mph - N/A   Partly Cloudy
10:56 PM 79.0 °F - 75.0 °F 88% 30.02 in 10.0 mi ESE 4.6 mph - N/A   Partly Cloudy
11:56 PM 79.0 °F - 75.0 °F 88% 30.03 in 9.0 mi SE 3.5 mph - N/A   Partly Cloudy